Regional Weather Roundup
Issued by NWS Burlington, VT

Home | Current Version | Previous Version | Text Only | Print | Product List | Glossary On
Versions: 1 2 3 4 5 6 7 8 9 10 11 12 13 14 15 16 17 18 19 20 21 22 23 24 25 26 27 28 29 30 31 32 33 34 35 36 37 38 39 40 41 42 43 44 45 46 47 48 49 50
312
ASUS41 KBTV 231630
RWRBTV
VERMONT REGIONAL WEATHER ROUNDUP
NATIONAL WEATHER SERVICE BURLINGTON VT
1200 PM EDT SAT SEP 23 2017

NOTE: "FAIR" INDICATES FEW OR NO CLOUDS BELOW 12,000 FEET WITH NO
SIGNIFICANT WEATHER AND/OR OBSTRUCTIONS TO VISIBILITY.

* THESE REPORTS ARE NOT UNDER NWS QUALITY CONTROL AND/OR DO NOT
  REPORT WEATHER SUCH AS PRECIPITATION AND FOG.

VTZ001>019-231700-
_____VERMONT_____


CITY           SKY/WX    TMP DP  RH WIND       PRES   REMARKS
BURLINGTON     PTSUNNY   75  54  47 CALM      30.08F
MONTPELIER     SUNNY     70  55  59 CALM      30.14F
MORRISVILLE    SUNNY     72  52  49 CALM      30.11F
ST. JOHNSBURY*   N/A     71  51  49 MISG      30.08F
LYNDONVILLE*   FAIR      73  53  49 CALM      30.12F
MIDDLEBURY*    FAIR      73  55  54 N5        30.10S
RUTLAND*       SUNNY     73  52  47 CALM      30.10F
SPRINGFIELD    SUNNY     74  53  48 CALM      30.08F
HIGHGATE*      FAIR      76  57  52 W3        30.07F
NEWPORT*       FAIR      74  53  47 CALM      30.10F
BENNINGTON     SUNNY     74  56  53 CALM      30.10F
SUTTON*          N/A     73 N/A N/A MISG        N/A
ISLAND POND*     N/A     77 N/A N/A W6          N/A
GALLUP MILLS*    N/A     75 N/A N/A MISG        N/A
UNION VILLAGE*   N/A     75 N/A N/A MISG        N/A
MT. MANSFIELD*   N/A     68 N/A N/A NW17        N/A

_____LAKE CHAMPLAIN_____


CITY           SKY/WX    TMP DP  RH WIND       PRES   REMARKS
BURTON ISLAND*   N/A     70  59  68 SW6         N/A
COLCHESTER RF*   N/A     66  57  72 S9          N/A
DIAMOND ISL*     N/A     66  59  77 SW5         N/A

$$

NYZ007-026>031-035-052-083-087-231700-
_____NORTHERN NEW YORK_____


CITY           SKY/WX    TMP DP  RH WIND       PRES   REMARKS
PLATTSBURGH    SUNNY     69  57  65 SE9       30.08F
SARANAC LAKE   SUNNY     75  53  46 W7        30.13F
MASSENA        SUNNY     79  63  57 SW10      30.07F
OGDENSBURG*    FAIR      83  64  52 SW7       30.08S
POTSDAM*       SUNNY     79  64  61 W10       30.09S
STARK FALLS*     N/A     77 N/A N/A W6          N/A
WATERTOWN      SUNNY     77  55  46 SW8       30.11F
FT DRUM        SUNNY     78  60  52 W6        30.11F
ALBANY         MOSUNNY   76  57  51 N8        30.09F
GLENS FALLS    SUNNY     74  52  46 CALM      30.08F

$$
NHZ002-005-011-231700-
_____NEW HAMPSHIRE_____


CITY           SKY/WX    TMP DP  RH WIND       PRES   REMARKS
LEBANON        CLOUDY    71  54  54 CALM      30.07F
KEENE          SUNNY     81  54  39 NW7       30.07F
MT WASHINGTON  MOSUNNY   59  46  63 N13         N/A
PLYMOUTH       FAIR      78  49  36 W6        30.05S
WHITEFIELD     SUNNY     73  47  39 CALM      30.11F

$$

_____REGIONAL QUEBEC LOCATIONS_____


CITY           SKY/WX    TMP DP  RH WIND       PRES   REMARKS
MONTREAL       MOSUNNY   75  61  60 S10       30.05F
QUEBEC CITY    MOSUNNY   72  61  68 SW10      30.02S
SHERBROOKE     SUNNY     73  55  53 SW6       30.08F

_____REGIONAL ONTARIO LOCATIONS_____


CITY           SKY/WX    TMP DP  RH WIND       PRES   REMARKS
OTTAWA         PTSUNNY   81  66  61 W7        30.06S

______KEY______
VSB  - VISIBILITY IN MILES
WCI  - WIND CHILL INDEX
HX   - HEAT INDEX
$$
NNNN




USA.gov is the U.S. government's official web portal to all federal, state and local government web resources and services.